ECMWFFLT2_con_mucape_132.txt.gz
CAPE
0 0 0 0 0 0 0 0 0 0 0 0 0 28 25 0 0 121 212 136 354 360 395 504 620 674 763 774 986 1106 1085 1053 1055 1128 1086 982 819 458 483 607 656 659 639 507 487 452 430 397 403 438 854 1006 1047 1180 1198 1015 970 1442 1284 1480 1738 1790 1770
0 0 0 0 0 0 0 0 0 0 0 0 0 0 0 0 0 6 106 166 237 162 237 504 362 589 572 690 818 667 876 976 1016 1041 1033 984 847 498 376 538 615 661 637 616 496 462 438 472 439 423 810 1002 1046 1196 1252 1106 1015 1420 1497 1386 1604 1765 1828
0 0 0 0 0 0 0 0 0 0 0 0 0 0 2 0 0 0 41 129 182 60 232 577 424 481 513 531 516 806 756 1042 1116 1059 1013 949 840 556 601 518 564 590 519 480 446 454 530 524 442 405 712 939 1036 1145 1272 1211 1084 1357 1662 1462 1484 1640 1729
0 0 0 0 0 0 0 0 0 0 0 0 5 0 0 0 0 0 89 9 112 344 568 613 651 587 645 620 624 535 828 947 1150 1127 1102 1067 903 830 773 354 278 512 449 421 544 635 578 588 418 306 623 850 1007 1068 1367 1303 1171 1264 1769 1677 1566 1604 1628
0 0 0 0 0 0 0 0 0 0 1 0 0 0 0 0 0 0 0 0 187 466 654 796 790 940 965 829 583 582 619 720 850 1015 1088 1080 1068 858 868 821 635 278 453 531 583 603 608 597 383 314 596 824 989 1037 1244 1413 1272 1224 1708 1936 1726 1615 1666
0 0 0 0 0 0 0 0 0 0 0 0 0 37 7 0 0 0 0 0 206 563 813 892 764 952 1127 1050 1001 643 520 541 564 597 744 889 989 1033 842 845 970 605 318 358 525 552 504 529 365 292 593 807 998 1031 1142 1420 1412 1294 1588 1964 2023 1810 1757
0 0 0 0 0 0 0 0 0 0 2 0 0 0 0 195 187 1 0 0 0 381 713 739 740 732 822 848 802 800 714 600 625 843 1134 1172 975 892 1020 795 600 639 635 344 420 487 572 503 442 405 567 879 1080 1097 1142 1402 1566 1454 1543 1884 2086 2053 1906
0 0 0 0 0 0 0 0 0 0 0 0 0 0 7 0 46 0 0 0 0 232 500 646 572 646 708 833 816 700 637 696 784 930 1247 1035 810 859 1001 1122 765 512 218 449 392 457 498 517 494 458 498 896 1196 1241 1279 1441 1658 1648 1623 1782 1993 2113 2107
0 0 0 0 0 0 0 0 0 0 0 1 2 0 0 2 0 0 0 0 0 0 674 747 658 631 579 641 824 674 710 850 897 1049 1160 839 577 444 592 729 879 587 219 584 568 394 410 317 294 430 429 895 1195 1345 1417 1520 1704 1786 1772 1789 1859 1981 2079
0 0 0 0 0 0 0 8 28 9 35 16 7 42 0 0 6 0 0 0 0 0 101 257 274 386 361 481 620 736 846 740 870 837 813 683 172 427 619 928 1062 971 510 316 506 517 251 324 408 550 635 837 1131 1330 1450 1565 1690 1811 1827 1814 1862 1932 1988
0 0 0 0 0 0 0 0 1 0 5 6 2 0 0 0 0 0 0 0 0 3 0 3 116 317 142 299 706 706 721 692 628 624 601 601 545 393 358 428 771 825 717 464 346 261 429 254 455 726 610 616 1059 1203 1383 1526 1642 1760 1820 1791 1821 1900 1944
0 0 0 0 0 0 0 0 0 0 4 3 1 0 6 0 0 0 0 0 0 0 0 0 96 204 257 590 688 622 563 502 410 486 489 723 462 404 409 514 623 789 613 432 192 288 315 405 241 571 727 733 915 1093 1290 1484 1571 1685 1742 1725 1696 1745 1808
0 0 0 0 0 0 0 0 0 0 12 12 9 3 4 0 0 0 0 5 0 10 73 105 102 123 357 750 658 527 482 396 500 414 284 306 322 383 366 431 612 843 942 421 183 243 304 261 335 496 675 709 730 1012 1234 1414 1488 1614 1711 1693 1666 1626 1604
0 0 0 0 0 0 0 0 0 1 21 59 44 23 18 0 0 0 72 68 24 353 360 368 979 1025 998 898 626 657 498 487 423 426 365 256 356 501 494 539 542 502 674 775 626 461 308 190 301 368 592 814 802 686 996 1218 1438 1495 1570 1671 1686 1657 1596
0 0 0 0 0 0 0 0 0 0 30 17 11 24 40 2 1 69 394 267 332 1075 1137 1148 992 836 679 624 461 454 434 595 548 410 317 442 682 762 800 780 775 773 744 865 924 474 364 225 192 426 419 663 745 762 708 894 1153 1361 1369 1456 1543 1627 1517
0 0 0 0 0 0 0 0 0 0 0 0 0 5 3 7 9 49 362 294 609 1087 1291 1145 1056 907 731 673 578 491 518 588 590 541 388 615 698 764 714 753 812 831 711 835 859 857 685 416 271 240 444 586 715 709 629 796 832 1042 1165 1247 1495 1497 1394
0 0 0 0 0 0 0 0 0 0 0 0 7 73 76 2 2 0 1 21 632 1184 1299 1189 1113 1049 922 871 728 685 681 644 702 676 480 644 696 707 666 708 710 626 642 591 595 654 663 614 380 450 764 670 721 711 695 854 878 919 1022 1132 1412 1473 1380
0 0 0 0 0 0 0 0 1 1 0 53 116 242 434 514 93 1 0 717 1194 1365 1197 933 901 991 990 897 808 675 637 662 767 756 714 632 562 556 541 574 544 443 448 457 665 647 480 623 540 647 920 766 671 877 879 812 816 929 1057 1138 1299 1441 1395
0 0 0 0 0 0 0 0 7 50 385 551 629 681 727 928 1047 1206 1330 1442 1427 1301 1316 1076 780 810 815 815 865 860 788 795 717 690 602 586 541 503 509 500 453 382 364 297 302 279 369 529 646 849 744 862 826 704 949 905 827 810 1007 1196 1391 1417 1389
0 0 0 0 0 0 0 0 14 33 355 308 382 695 940 1052 1154 1292 1450 1523 1475 1371 1180 996 917 759 970 965 915 919 758 685 669 597 499 412 380 385 364 360 416 298 281 271 70 36 144 140 396 440 555 732 790 709 721 928 833 804 815 1039 1269 1441 1357
0 0 0 0 0 0 0 0 2 0 13 8 45 311 672 995 1381 1484 1552 1468 1346 1231 1162 1197 1041 963 842 773 733 790 770 748 650 539 490 484 377 335 304 260 292 277 256 262 290 221 74 28 56 350 399 441 625 761 637 646 774 934 846 917 1015 1158 1300
0 0 0 0 0 0 0 0 0 0 0 108 337 438 616 994 1408 1431 1407 1251 1174 1199 1145 1026 987 894 901 646 923 961 763 678 589 521 513 449 400 435 388 390 348 323 269 251 147 72 8 0 0 106 322 339 415 563 682 715 740 848 1090 1037 1130 1141 1324
0 0 0 0 0 5 2 4 0 4 164 248 216 174 287 848 1405 1390 1203 1121 1168 1134 1066 1039 890 977 472 190 666 927 784 706 579 530 481 440 372 459 497 430 385 350 208 131 19 0 0 0 0 0 0 225 311 366 499 624 833 870 887 1251 1147 1359 1420
0 0 0 0 0 0 14 13 6 6 3 0 0 0 0 66 1186 1372 1062 854 924 960 821 758 810 653 119 18 371 874 844 697 592 514 456 426 474 507 512 496 434 380 330 252 0 0 0 0 0 0 0 98 228 329 420 730 1008 1134 1054 1382 1246 1208 1074
3 0 0 0 0 12 6 34 59 29 8 0 0 0 0 0 593 1011 864 651 1014 1032 778 579 555 738 607 800 862 887 804 655 616 506 403 390 392 474 453 462 429 361 351 276 0 0 0 0 69 0 31 173 198 284 391 539 709 1058 1180 1051 1072 1334 1414
0 0 0 0 1 0 0 0 96 83 7 17 0 0 0 24 357 749 682 724 1075 967 697 544 625 899 887 858 919 865 782 674 558 424 441 298 364 479 488 438 387 312 249 0 0 0 10 0 0 0 326 334 311 326 437 460 711 1012 1129 1252 1358 1579 1718
0 0 0 0 18 8 91 75 113 197 101 98 0 84 91 342 272 604 890 1047 1122 977 908 959 1119 945 896 894 864 776 686 654 587 513 368 126 342 452 351 315 298 107 0 0 0 0 85 91 230 311 495 484 597 566 560 428 752 985 1025 1020 1194 1441 1338
0 0 8 11 0 0 108 11 44 58 75 56 179 173 279 522 670 853 1078 1170 1183 1191 1087 1084 975 839 894 869 802 766 684 631 514 401 180 105 93 328 92 1 0 0 0 0 0 167 5 0 0 63 540 510 630 622 835 877 777 587 580 598 924 1029 1167
1 3 0 12 120 116 0 21 45 150 252 297 182 208 324 522 747 887 937 1060 1235 1283 1019 939 902 862 876 827 744 758 676 686 551 337 248 54 277 213 0 0 21 0 0 0 4 4 6 18 1 114 147 438 530 1015 702 668 748 893 848 903 870 811 881
17 100 30 46 10 67 173 278 319 246 219 184 96 175 320 352 504 614 503 780 984 1014 898 859 819 817 746 753 728 741 693 580 484 92 0 0 0 260 333 332 258 0 0 0 142 70 46 0 29 184 234 329 438 301 326 563 646 749 897 1051 1043 785 773
0 39 126 10 14 225 377 393 383 333 329 290 221 199 204 362 435 540 568 554 946 1106 1023 848 681 690 693 732 704 676 600 508 351 177 0 0 0 0 0 186 0 0 0 0 91 215 137 138 0 0 0 295 334 278 307 314 412 441 506 687 481 562 693
0 7 180 332 247 370 442 506 684 590 463 412 372 357 380 473 481 518 634 669 1092 1177 1144 939 699 690 680 700 632 568 508 447 349 252 184 0 0 0 0 0 1 17 21 0 165 251 212 228 214 177 133 9 210 260 236 280 340 340 287 172 216 202 196
282 317 378 360 361 390 461 576 578 530 488 519 611 602 588 648 695 624 758 848 1007 1056 1007 858 753 612 605 572 550 485 440 392 314 242 221 65 13 15 0 0 2 1 50 135 205 264 69 96 188 210 233 237 230 184 125 174 184 85 46 30 1 6 16
249 428 374 258 258 298 322 375 444 453 373 476 650 766 820 818 800 713 816 857 826 909 887 827 715 570 497 549 440 380 359 353 298 235 195 0 0 0 11 60 157 0 27 74 159 255 104 177 162 138 158 230 193 122 123 149 164 178 157 114 71 36 33
1 64 337 203 251 344 388 498 651 831 935 995 1081 1173 1191 1156 1032 842 923 971 894 731 701 680 619 487 488 504 391 366 339 273 0 0 0 0 0 0 24 2 200 218 2 80 89 192 238 92 111 126 0 3 131 130 122 158 116 106 84 75 50 32 22
376 316 316 319 448 504 470 429 583 863 904 973 1121 1221 1229 1221 1223 1170 1061 1006 898 849 739 607 461 433 365 366 382 346 217 41 155 31 0 0 0 24 91 116 238 194 122 0 0 210 283 145 0 0 42 12 93 116 66 70 24 33 42 41 42 21 0
304 438 393 493 509 484 459 463 436 627 790 746 811 872 902 973 1091 1134 1151 1078 890 829 600 428 342 295 306 286 238 0 25 90 22 1 0 0 0 8 40 117 205 194 193 151 8 0 0 0 0 23 29 21 6 56 26 0 0 0 0 11 2 84 0

ECMWFFLT2_con_mucape_135.txt.gz
CAPE
0 0 0 0 0 0 0 0 0 0 0 0 0 64 13 0 0 0 308 142 275 361 376 398 559 609 690 812 735 844 984 1011 1015 1059 1081 1062 999 944 834 630 560 592 610 604 569 534 489 526 457 567 570 578 609 582 657 670 671 726 671 717 868 1056 1224
0 0 0 0 0 0 0 0 0 0 0 0 0 1 0 0 0 0 41 77 124 83 268 437 487 550 558 578 694 694 874 994 1052 1109 1130 1137 1077 974 857 715 557 574 599 579 572 545 515 487 471 448 530 558 647 637 639 633 619 690 741 680 845 973 1084
0 0 0 0 0 0 0 0 0 0 4 4 0 0 0 0 0 0 0 3 95 0 44 497 578 593 586 613 645 838 749 811 1020 1041 1106 1167 1178 1095 943 770 533 522 551 567 577 580 570 530 475 432 520 560 653 675 690 660 635 638 758 715 810 984 1036
0 0 0 0 0 0 0 0 0 0 0 0 0 0 0 0 0 0 0 0 75 0 352 597 621 713 757 691 660 678 881 822 906 1107 1092 1063 1137 1111 1011 794 550 493 520 542 523 525 520 497 457 396 440 481 657 695 793 727 680 657 706 761 850 955 1048
0 0 0 0 0 0 0 0 0 0 0 0 1 0 0 0 0 0 0 0 0 0 421 624 712 783 929 946 818 581 541 717 827 926 1102 1100 1034 977 885 649 434 409 399 423 463 461 464 436 424 387 381 382 567 705 787 805 717 654 675 790 798 915 1030
0 0 0 0 0 0 0 0 0 0 0 4 10 1 0 0 0 0 0 0 0 0 513 686 721 766 1030 1021 852 802 651 550 567 761 1015 920 1114 953 897 723 400 270 324 23 374 346 366 406 384 382 401 393 424 699 775 860 792 700 636 810 827 859 978
0 0 0 0 0 0 0 0 0 0 0 0 0 1 1 0 0 0 0 0 0 0 554 731 624 675 762 859 751 697 700 655 645 882 1048 938 736 956 922 781 677 416 316 514 416 396 19 273 355 389 434 414 431 550 761 873 852 766 689 842 882 868 922
0 0 0 0 0 0 0 0 0 0 0 0 0 0 0 0 0 0 0 0 0 0 489 629 584 608 606 777 810 731 689 751 754 950 1051 930 715 843 1046 799 848 820 476 426 316 521 441 401 392 411 440 403 465 492 738 867 908 840 765 882 1004 950 921
0 0 0 0 0 0 0 0 0 0 0 0 0 0 0 0 0 0 0 0 0 0 378 641 454 444 527 575 898 747 798 827 920 960 970 802 604 695 841 919 951 950 807 610 366 378 424 363 448 416 397 413 507 542 701 825 942 920 841 906 1146 1144 1053
0 0 0 0 0 0 0 0 0 0 0 0 0 25 1 0 0 0 0 0 0 0 0 296 163 33 233 342 635 826 885 886 855 874 798 567 706 511 759 846 910 897 923 719 443 400 396 400 382 426 469 365 518 568 558 788 935 987 931 929 1167 1314 1254
0 0 0 0 0 0 0 0 0 0 0 0 0 0 0 0 0 0 0 0 0 0 0 0 0 9 60 297 874 924 831 736 696 690 594 600 650 591 528 857 921 817 785 697 536 360 367 363 426 452 482 412 530 552 689 793 896 1025 1039 1011 1171 1354 1396
0 0 0 0 0 0 0 0 0 0 0 0 0 0 0 0 0 0 0 0 0 0 0 0 0 0 3 42 170 552 567 574 511 429 525 545 548 520 560 610 744 914 858 664 579 443 391 457 397 412 451 499 367 394 604 858 900 1086 1177 1150 1196 1348 1440
0 0 0 0 0 0 0 0 0 0 0 0 0 0 0 0 0 0 0 0 0 0 0 0 0 0 3 0 227 493 533 472 454 548 518 405 406 436 468 468 447 651 837 718 592 470 376 442 416 410 420 355 378 340 540 821 986 1123 1306 1314 1285 1334 1429
0 0 0 0 0 0 0 0 0 0 0 0 0 0 0 0 0 0 0 0 0 0 57 300 28 111 167 518 665 685 610 544 553 587 516 443 741 852 898 776 740 616 544 717 746 527 375 453 444 381 316 317 366 352 436 690 965 1146 1302 1411 1379 1354 1391
0 0 0 0 0 0 0 0 0 0 0 0 0 1 0 0 0 65 2 0 0 0 397 863 742 971 946 916 728 594 581 632 655 606 503 528 691 785 799 758 848 857 839 915 911 617 410 336 396 440 357 357 299 315 362 568 960 1269 1336 1446 1440 1401 1380
0 0 0 0 0 0 0 0 0 0 0 0 0 0 6 0 0 82 51 54 17 105 1052 1116 1087 954 877 617 510 491 656 693 600 656 635 606 645 693 666 618 622 650 708 730 821 846 689 434 322 298 318 385 338 339 378 429 713 1056 1268 1443 1474 1457 1420
0 0 0 0 0 0 0 0 0 0 0 0 0 8 73 15 40 66 123 17 0 128 1109 1106 863 917 897 787 761 707 620 725 730 718 774 684 728 735 582 545 518 489 461 524 550 654 770 718 476 344 311 370 407 357 335 338 593 920 1207 1359 1484 1484 1450
0 0 0 0 0 0 0 0 0 0 0 0 3 22 335 452 236 63 1 0 427 870 1190 848 631 688 856 907 910 696 709 730 772 788 850 840 787 662 556 500 502 446 447 404 398 479 555 713 690 478 536 622 515 524 482 449 644 972 1177 1250 1329 1454 1430
0 0 0 0 0 0 0 0 3 0 8 113 396 647 674 914 746 536 419 774 795 1106 1062 813 836 885 893 941 1027 946 850 874 756 745 731 700 617 559 448 374 403 439 355 342 320 322 348 485 715 660 643 690 774 728 649 527 537 658 970 1036 1145 1221 1439
0 0 0 0 0 0 0 0 403 371 452 418 215 213 560 817 868 1043 795 935 1091 1141 1092 1053 1013 895 1025 969 977 966 851 773 768 674 569 584 510 458 393 363 440 460 388 312 250 298 242 95 155 612 630 540 641 639 699 711 655 558 521 613 887 1028 1228
0 0 0 0 0 0 1 262 203 18 122 21 0 14 322 712 731 1171 1167 1271 1316 1260 1243 1190 1086 966 946 790 569 844 882 769 698 615 553 613 532 463 416 345 332 298 375 346 336 316 260 49 3 4 303 583 483 537 688 735 694 673 572 611 672 645 874
0 0 0 0 0 0 0 0 0 0 0 0 34 38 246 419 861 1063 1353 1364 1460 1388 1104 1062 945 887 630 65 364 936 921 821 709 612 622 583 535 476 380 351 283 290 371 374 317 32 16 0 0 0 0 0 370 529 530 654 676 690 660 580 600 506 610
0 0 0 0 0 0 0 0 0 0 2 23 10 0 0 395 875 1206 1407 1338 1172 1033 1069 1015 848 688 44 0 173 855 878 818 704 676 641 620 506 447 504 511 529 518 458 382 308 24 0 0 0 0 0 0 0 14 357 452 584 672 702 708 665 702 735
0 0 0 0 0 0 2 0 0 1 6 0 0 0 0 428 1009 1280 1244 871 796 962 1031 922 801 517 56 0 719 952 912 720 682 641 523 423 374 360 424 517 551 480 412 336 280 91 2 0 0 0 0 0 0 0 25 275 392 577 707 702 661 735 812
16 0 0 0 0 0 0 0 0 0 0 0 0 0 0 262 1111 1217 1157 786 617 699 853 829 483 248 108 457 917 927 835 673 571 507 369 436 285 253 332 467 444 412 346 260 0 0 0 0 0 1 3 0 0 0 2 92 299 430 592 664 634 637 619
0 0 0 0 0 0 0 0 0 0 0 0 0 10 125 366 901 1251 1182 818 536 691 714 657 370 327 726 976 1013 924 853 692 637 538 428 154 130 74 257 383 332 210 0 0 2 2 18 1 0 65 63 104 456 28 2 95 281 383 458 560 660 662 640
0 0 0 0 0 0 0 0 0 77 0 0 0 2 147 208 481 804 1006 727 424 684 794 589 482 671 916 968 971 945 840 710 590 506 330 73 40 11 196 0 198 186 69 2 1 231 138 8 69 243 318 526 350 17 68 198 332 396 478 590 669 692 611
2 0 0 0 0 0 0 0 7 0 0 55 0 4 111 277 203 441 668 576 552 714 642 501 568 824 931 849 865 861 837 717 613 566 219 0 0 0 67 178 363 329 60 1 119 333 38 34 111 280 446 614 463 101 253 383 500 473 490 564 496 637 618
0 0 0 0 0 0 0 0 0 4 4 0 0 0 37 242 375 386 435 568 743 850 718 770 810 779 775 801 769 788 741 622 553 356 0 0 0 0 335 390 92 114 0 0 352 289 125 0 37 211 328 477 626 532 536 493 588 646 595 547 573 684 714
0 0 25 0 0 10 26 17 9 41 118 50 0 125 215 288 446 592 717 595 831 889 885 878 792 727 700 701 690 680 654 564 518 120 0 0 0 0 160 381 396 65 59 122 325 277 88 125 128 171 284 434 592 606 553 542 454 423 478 520 620 446 412
0 1 0 2 3 172 86 197 195 227 197 100 84 194 242 284 508 643 520 570 714 788 845 829 705 682 668 656 610 598 567 509 237 0 0 0 0 0 242 300 334 143 261 348 314 346 178 121 55 42 261 420 433 235 466 475 456 304 336 472 414 571 601
0 2 175 218 299 268 270 251 242 253 255 246 216 219 234 261 366 422 403 368 483 628 721 713 689 645 607 600 568 518 485 436 12 0 0 0 0 0 2 162 268 222 284 330 351 350 247 157 81 60 295 364 109 268 221 310 363 416 471 452 541 558 446
385 303 302 384 405 389 416 400 363 328 280 277 283 260 293 330 342 366 481 377 557 680 749 725 761 643 570 557 528 478 434 106 0 0 0 0 0 0 0 110 264 298 327 416 391 405 305 140 251 254 250 62 208 297 263 328 195 438 421 290 295 330 357
258 333 380 350 295 363 450 483 431 453 441 377 412 384 378 383 398 444 562 590 729 828 847 723 662 582 533 479 444 439 326 0 0 0 0 0 0 0 0 29 177 303 390 462 470 420 342 313 306 301 268 143 28 110 88 51 18 0 0 6 20 25 22
177 241 351 290 190 304 434 471 443 457 462 480 487 490 486 514 548 544 530 573 604 703 708 714 678 594 490 431 399 355 17 159 78 0 0 0 0 0 0 8 115 255 338 464 484 443 349 300 323 114 172 98 65 36 0 0 0 0 0 1 0 0 0
183 164 360 273 247 352 366 444 538 653 633 495 567 777 834 830 748 748 729 603 604 604 634 632 618 608 471 387 357 283 188 115 41 0 0 0 0 0 0 23 58 40 188 379 469 404 339 301 230 143 60 0 0 37 32 24 21 41 35 24 18 18 27
11 205 335 227 270 331 409 596 697 771 789 673 798 1076 1077 1054 1015 989 894 872 770 679 583 577 513 422 387 377 304 239 198 126 19 0 0 0 0 0 0 0 0 30 213 224 340 339 346 349 240 228 198 126 5 27 9 20 24 36 20 4 0 0 7

ECMWFFLT2_con_mucape_138.txt.gz
CAPE
0 0 0 0 0 0 0 0 0 0 0 0 0 35 0 27 3 0 268 212 140 44 252 381 557 606 668 664 713 851 1005 1062 1093 1072 1028 906 923 1001 954 790 737 639 605 615 628 621 627 743 742 744 754 769 761 744 716 652 575 508 455 558 574 924 1141
0 0 0 0 0 0 0 0 0 0 0 0 0 0 0 0 0 0 0 155 111 60 205 322 505 611 644 639 680 813 827 1002 1130 1127 1128 1093 964 988 993 887 728 661 627 619 627 638 627 714 734 719 742 746 742 716 609 630 573 523 474 443 465 713 1016
0 0 0 0 0 0 0 0 0 0 0 0 0 0 0 0 0 0 0 0 7 0 7 214 412 555 604 668 675 748 770 823 884 1080 1137 1194 1186 1068 1031 950 845 690 617 543 565 588 577 557 679 717 720 709 708 662 564 572 582 520 473 430 442 628 813
0 0 0 0 0 0 0 0 0 0 0 0 0 0 0 0 0 0 0 0 0 0 0 329 594 642 676 727 760 615 651 714 779 818 1096 1148 1210 1221 1130 1070 950 848 701 575 579 613 603 588 643 662 620 626 645 610 548 524 516 532 474 522 607 541 676
0 0 0 0 0 0 0 0 0 0 0 0 0 0 0 0 0 0 0 0 0 0 0 533 652 609 736 900 865 817 737 569 718 776 750 1036 1175 1196 1236 1187 1126 1012 836 693 619 629 638 478 435 569 695 629 594 561 553 477 507 524 518 600 576 619 661
0 0 0 0 0 0 0 0 0 0 0 0 3 0 0 0 0 0 0 0 0 0 8 544 728 798 1084 1108 989 797 667 675 739 955 1105 1076 867 1124 1184 1209 1226 1158 978 815 673 660 668 514 370 380 504 620 601 580 582 480 478 476 587 616 647 638 691
0 0 0 0 0 0 0 0 0 0 0 0 0 0 0 0 0 0 0 0 0 0 4 620 716 753 813 963 902 761 644 685 744 942 1098 985 899 786 1005 1090 1071 1008 873 835 846 706 525 448 359 318 352 470 569 611 567 530 500 530 614 618 639 677 704
0 0 0 0 0 0 0 0 0 0 0 0 0 0 0 0 0 0 0 0 0 0 514 677 674 675 703 844 813 794 743 677 840 1020 1017 947 810 654 849 673 915 978 864 704 656 523 434 435 420 409 353 378 470 538 562 498 528 484 693 661 644 723 700
0 0 0 0 0 0 0 0 0 0 0 0 0 0 0 0 0 0 0 0 0 0 328 615 502 474 533 622 743 802 685 639 763 891 901 791 688 679 668 845 846 767 852 803 673 538 334 375 452 417 360 358 402 442 470 510 510 540 680 745 694 736 737
0 0 0 0 0 0 0 0 0 0 0 0 0 26 0 0 0 0 0 0 0 0 0 366 414 350 259 429 496 637 704 768 745 749 701 626 561 628 634 736 842 873 865 882 832 736 605 328 370 372 417 385 409 423 442 621 701 791 513 750 762 798 810
0 0 0 0 0 0 0 0 0 0 0 0 0 0 0 0 0 0 0 0 0 0 0 0 84 80 2 6 20 387 655 762 665 523 502 503 513 532 561 605 645 810 867 890 888 867 740 575 330 376 397 464 415 399 387 591 662 750 835 805 808 865 912
0 0 0 0 1 0 0 0 0 0 0 0 0 0 0 0 0 0 0 0 0 0 0 0 0 0 0 0 0 441 728 634 451 400 411 427 547 575 662 593 550 602 803 903 868 849 833 739 554 420 415 435 458 458 442 464 649 742 795 828 828 854 999
0 0 0 0 0 0 0 0 0 0 0 0 0 0 0 0 0 0 0 0 0 0 0 0 0 0 0 0 0 0 391 458 409 454 502 571 742 800 828 844 779 602 556 656 790 802 783 704 609 460 366 389 408 421 431 442 645 714 835 878 840 849 1006
0 0 0 0 0 0 0 0 0 0 0 0 0 0 0 0 0 0 0 0 0 0 0 0 368 299 9 477 548 604 616 488 523 504 502 451 764 804 880 811 735 782 794 808 778 758 773 712 620 529 425 340 363 365 378 396 604 697 785 900 909 901 970
0 0 0 0 0 0 0 0 0 0 0 0 0 0 0 0 0 0 0 0 0 0 0 222 740 812 740 712 591 494 531 600 567 562 503 451 515 592 617 619 566 546 572 588 675 786 836 805 696 595 530 455 390 374 355 368 450 685 789 877 948 964 979
0 0 0 0 0 0 0 0 0 0 0 0 0 0 0 0 0 5 0 0 0 0 48 907 919 839 694 528 552 519 504 537 574 516 538 562 512 579 558 482 510 490 472 443 426 420 522 758 744 562 457 413 381 358 364 351 356 492 790 881 951 1025 1051
0 0 0 0 0 0 0 0 0 0 0 0 0 0 1 0 1 1 6 0 0 0 602 856 778 655 679 790 652 569 573 539 592 585 573 671 584 646 637 557 505 472 443 436 403 357 354 406 557 666 593 418 354 342 354 358 294 295 644 863 978 1049 1092
0 0 0 0 0 0 0 0 0 0 0 0 0 0 0 17 0 1 0 0 7 370 956 723 631 380 550 688 703 578 624 618 619 696 649 658 693 675 621 500 396 320 336 376 380 357 296 258 246 381 631 610 447 376 471 321 323 288 451 670 912 1063 1126
0 0 0 0 0 0 0 0 43 0 0 0 4 558 487 643 251 276 118 312 564 956 906 777 812 746 712 786 682 708 753 788 750 647 604 822 777 673 506 410 358 327 280 302 336 318 285 244 198 234 408 621 606 547 565 496 376 288 312 469 671 960 1087
0 0 0 0 0 0 0 155 322 33 1 14 96 0 385 636 657 637 531 699 1020 959 923 918 831 864 825 750 786 850 882 736 717 678 598 574 509 452 455 421 372 331 305 261 242 240 230 238 129 66 68 432 622 581 448 562 576 466 385 356 443 672 977
0 0 0 0 0 0 147 0 131 30 187 8 0 0 27 580 602 787 866 1030 1064 1127 1074 1085 1021 797 698 266 329 753 875 762 702 616 554 487 572 536 464 361 327 293 224 197 253 231 225 242 245 242 2 1 260 504 565 439 473 530 496 430 415 523 721
0 0 0 0 0 0 0 0 0 0 0 0 0 0 0 259 540 683 1029 1126 1187 1155 1175 1078 833 637 51 0 0 808 817 758 708 620 629 622 575 484 375 300 306 351 388 348 348 350 336 309 266 36 2 2 2 1 332 501 469 459 542 540 508 482 692
0 0 0 0 0 0 0 0 26 156 0 0 147 0 0 0 483 626 960 1182 1270 1307 1184 869 756 299 4 0 0 451 868 790 712 678 620 582 419 351 295 246 277 373 445 470 418 364 322 248 43 3 2 1 1 1 1 1 201 446 432 530 558 565 532
0 0 0 0 0 0 0 0 0 94 0 0 0 0 0 0 529 849 1119 1301 1320 1061 907 878 575 181 0 0 0 827 861 800 692 611 570 393 347 293 246 222 251 358 408 395 405 365 299 278 238 1 2 1 0 0 0 2 1 7 334 418 468 523 571
0 0 0 0 0 0 0 0 0 0 0 0 0 0 0 0 570 995 1209 1148 842 824 799 692 323 337 0 208 614 797 753 671 612 528 455 433 340 147 200 160 236 265 264 264 262 254 212 64 3 2 1 0 0 0 0 0 0 1 3 180 334 440 506
0 0 0 0 0 0 0 0 0 0 0 0 0 0 0 173 651 1073 1074 800 556 538 583 556 160 240 123 692 778 748 678 638 506 435 452 296 20 0 0 174 278 278 255 237 103 4 17 17 202 75 10 44 73 18 294 455 386 0 1 98 251 343 435
0 0 0 0 0 0 0 0 15 0 0 0 0 0 47 356 701 920 1021 688 438 342 468 482 414 476 700 697 741 791 772 645 608 511 378 8 0 0 0 118 343 334 331 298 86 210 261 229 36 41 42 104 182 253 358 459 169 0 2 85 194 282 379
1 0 0 0 0 0 0 0 25 0 0 0 0 35 204 362 590 807 906 790 664 384 394 421 406 462 706 763 792 776 709 573 491 482 411 0 0 0 0 0 18 258 310 1 333 286 250 43 64 64 95 176 278 315 386 455 264 7 34 88 194 235 312
0 0 0 0 0 0 0 0 0 0 0 0 0 0 145 277 423 611 662 726 621 485 412 437 344 503 678 653 654 711 637 523 473 479 0 0 0 0 0 0 0 1 0 0 0 294 72 95 93 136 150 252 344 380 435 450 385 247 124 180 229 245 321
0 0 0 0 0 0 0 0 0 0 1 0 0 6 100 152 189 253 361 474 513 400 477 502 522 534 639 673 640 603 605 506 450 381 0 0 0 0 0 0 0 0 0 1 22 109 181 156 85 172 267 299 390 444 414 412 429 430 318 261 270 308 305
0 0 0 12 0 8 54 50 63 84 0 2 0 142 118 186 302 249 282 289 379 500 606 584 509 572 638 604 556 534 541 534 427 200 0 0 0 0 0 0 0 0 0 4 68 158 250 195 265 306 282 356 327 290 304 371 398 411 360 309 310 229 256
0 0 0 156 228 275 278 164 156 220 218 193 142 136 186 230 386 372 430 493 540 637 636 673 612 545 580 572 552 501 479 446 203 0 0 0 0 0 0 0 0 3 7 11 101 216 297 280 335 369 326 325 319 366 321 288 301 304 378 385 306 301 334
182 38 158 282 392 374 368 260 273 288 222 203 172 193 240 328 414 463 380 393 505 466 572 592 574 541 546 524 483 438 409 332 129 0 0 0 0 0 0 0 0 6 190 297 335 303 316 320 413 392 345 334 289 305 277 246 196 170 0 2 0 204 236
1 2 79 248 2 26 221 319 335 311 272 253 292 319 305 353 388 406 433 411 495 488 519 539 550 584 510 483 448 397 322 105 0 0 0 0 0 0 0 0 0 63 208 270 336 385 380 371 406 341 234 170 166 117 77 64 50 27 0 0 21 108 157
6 1 32 63 17 6 37 223 356 358 368 373 358 367 341 341 372 426 446 452 593 645 638 644 583 532 482 422 390 354 242 0 0 0 0 0 0 0 0 0 0 3 163 349 372 402 356 363 334 265 130 58 42 23 0 5 63 0 0 4 13 70 141
0 3 10 181 157 188 191 245 437 452 453 420 400 427 433 402 429 466 460 488 508 609 571 570 566 585 490 414 342 336 185 84 0 0 0 0 0 0 0 0 0 25 139 212 386 425 399 334 247 187 129 25 1 1 12 15 50 83 78 70 48 38 35
11 5 1 80 244 216 359 356 477 600 606 566 506 673 670 601 589 606 612 600 516 515 516 547 527 542 516 422 322 293 154 0 0 0 0 0 0 0 0 0 0 9 43 116 228 411 428 293 178 161 102 103 126 92 52 5 18 26 55 85 62 55 37

ECMWFFLT2_con_mucape_141.txt.gz
CAPE
0 0 0 0 0 0 0 0 0 0 0 0 9 4 0 0 0 0 382 361 427 247 174 231 712 932 1127 1065 1140 1332 1610 1694 1858 1808 1622 1465 1370 1450 1543 1369 1177 1018 850 844 1040 1311 1414 1434 1387 1363 1407 1478 1556 1685 1654 1774 1881 1890 1722 1932 1846 2036 2391
0 0 0 0 0 0 0 0 0 0 0 0 3 7 17 24 1 14 62 105 230 134 0 420 798 887 986 1170 1060 1185 1491 1432 1599 1677 1962 2018 1767 1614 1662 1558 1328 1159 943 832 982 1422 1590 1282 1139 1150 1366 1443 1620 1709 1619 1594 1742 1797 1516 1578 1522 1749 2090
0 0 0 0 0 0 0 0 0 1 11 8 13 48 3 0 0 0 4 0 18 205 96 426 906 873 838 1096 1175 1171 1091 1336 1390 1462 1625 1831 1801 1708 1635 1470 1330 1210 932 986 1812 1348 1114 1051 1083 990 1102 1259 1267 1351 1384 1408 1517 1445 1389 1281 1322 1495 1721
0 0 0 0 0 0 0 0 0 0 13 97 50 0 7 1 21 20 1 0 0 311 151 241 724 984 1083 1071 1251 1190 1170 1121 1308 1400 1478 1682 1753 1848 1786 1564 1404 1284 1166 1424 1358 1302 1077 1082 956 933 1060 1011 1006 1053 1138 1229 1295 1387 1329 1193 1284 1447 1462
0 0 0 0 0 0 0 0 0 0 19 0 5 1 11 10 46 16 0 0 12 66 185 605 820 1161 1231 1328 1284 1421 1366 1286 1235 1418 1482 1788 1812 1564 1764 1791 1517 1313 1322 1154 1144 1180 1020 860 842 981 1091 1022 1002 963 1031 1194 1156 1153 1199 1116 1179 1394 1296
0 0 0 0 0 1 0 0 0 10 0 2 6 121 0 16 5 13 9 0 4 25 34 810 997 1087 1260 1512 1430 1403 1362 1355 1569 1732 1860 1750 1887 1828 1370 1192 1231 1552 1526 1053 1116 1022 774 700 893 1026 994 1025 1040 1045 1030 888 881 1047 996 1114 1285 1432 1407
0 0 0 0 0 0 0 0 0 3 107 41 0 0 233 28 4 0 19 3 0 133 116 704 1231 1384 1385 1537 1486 1304 1344 1428 1535 1699 1603 1575 1534 1513 1467 1568 1356 1180 1182 1199 1142 1053 917 811 938 943 955 971 1109 1245 1222 1005 1077 1210 1096 1156 1405 1778 1744
0 0 0 0 0 0 0 0 0 0 0 0 0 0 131 103 69 44 37 1 0 36 564 1075 1206 1419 1296 1366 1260 1486 1368 1411 1537 1728 1464 1406 1500 1437 1238 1351 1430 1522 1114 1095 1105 1037 1165 1406 1406 1225 1093 1076 1159 1381 1590 1536 1444 1504 1440 1481 1690 1845 1673
11 0 5 0 0 0 21 15 4 2 0 0 0 29 11 30 162 38 1 0 0 72 312 805 1092 988 991 1184 1154 1304 1645 1452 1370 1344 1263 1246 1206 1315 1328 1250 1333 1190 1397 1326 1264 1312 1371 1287 1443 1378 1068 1110 1218 1328 1604 1447 1518 1641 1565 1596 1595 1717 1674
0 7 4 0 0 6 0 10 0 18 30 27 137 12 76 1 270 2 6 0 4 27 1 409 783 812 824 946 921 848 1329 1500 1386 1032 989 1124 1007 1058 1238 1491 1424 1172 1172 1250 1428 1297 1223 1184 1177 1239 1293 1056 1004 1292 1422 1505 1721 1943 1862 1738 1665 1784 1668
0 115 822 18 5 0 0 0 10 0 0 16 148 273 77 0 41 9 90 190 87 36 59 317 598 684 774 785 753 805 1347 1166 903 876 852 918 748 882 910 1020 1013 1098 1181 1117 1273 1413 1314 1268 1262 1144 1034 1042 1046 1114 1172 1282 1410 1666 1974 1828 1779 1975 1919
176 136 37 0 56 0 0 0 1 13 9 1 27 0 91 609 16 2 158 596 13 0 67 188 364 465 665 736 772 623 1107 1244 1000 660 648 885 920 933 959 1056 1089 1164 1163 1122 1172 1255 1335 1489 1475 1367 1190 952 949 1025 962 1015 1332 1518 1518 1623 1665 1833 1827
0 0 0 0 0 0 0 0 0 8 74 13 53 49 56 64 0 0 226 512 83 118 78 78 103 288 398 468 777 669 1126 669 485 580 865 930 773 886 974 989 980 1006 1136 1181 1105 1151 1191 1173 1412 1637 1706 1478 1153 994 975 930 938 1320 1651 1839 1929 1541 1829
0 0 0 0 0 0 0 0 0 0 0 28 1 96 39 7 187 402 154 530 187 88 45 13 833 316 659 888 682 655 864 870 624 540 753 900 801 829 910 871 768 738 794 878 867 876 997 984 1091 1096 1144 1232 1360 1200 1069 1062 1030 1181 1528 1836 2012 1811 1847
0 0 0 0 0 0 0 0 0 0 0 0 0 1 1 8 6 6 8 257 424 294 83 1086 753 688 835 942 1070 1142 876 640 672 648 670 922 1029 1072 704 758 594 580 579 545 540 529 541 624 686 879 976 1031 993 1035 1188 1314 1327 1330 1368 1576 1905 2001 2120
0 0 0 0 0 0 0 0 0 0 0 0 0 0 38 6 54 416 139 72 116 267 328 1122 965 957 1272 1317 1088 950 925 628 619 658 738 815 877 914 894 821 690 598 539 469 353 349 337 412 471 601 715 723 761 867 939 1010 1205 1346 1424 1574 1759 1979 2081
0 0 0 0 0 0 0 0 0 0 0 34 0 1 48 34 275 161 64 70 526 435 1226 1388 1329 1278 1057 968 1198 1103 797 646 576 540 567 717 875 908 801 705 672 560 436 343 334 349 308 311 418 439 511 662 783 826 861 944 994 1104 1264 1385 1548 1836 2112
0 0 0 0 0 0 0 12 0 0 0 2 1 17 39 125 73 108 408 268 206 683 1120 1470 1523 1346 1399 1471 1219 813 1031 1011 778 766 877 835 918 850 818 695 543 470 381 372 355 365 306 346 377 374 458 470 592 717 823 945 908 952 966 1116 1360 1540 1871
0 0 0 0 0 2 65 0 195 130 0 0 0 204 535 241 320 459 525 808 1021 1457 1454 1543 1470 1306 1015 738 1047 753 620 698 845 848 782 764 696 784 736 636 502 436 432 413 393 354 321 322 284 257 212 161 146 196 390 558 878 900 1006 932 1030 1372 1585
0 0 0 0 0 28 0 47 396 206 3 11 150 307 741 893 372 745 806 1426 1250 814 859 796 790 840 795 664 661 753 815 713 815 718 736 780 761 710 620 416 521 491 420 412 358 271 265 155 191 211 207 17 7 11 21 323 489 558 888 914 926 1009 1292
5 14 0 5 77 0 94 108 306 109 724 305 242 0 244 721 1049 970 1145 1467 1078 831 853 889 760 726 568 830 950 580 700 733 731 709 788 658 733 711 660 637 564 417 431 379 268 260 206 189 174 168 189 198 156 3 3 4 45 400 562 823 891 896 1009
1 4 0 0 0 0 74 632 281 371 71 352 120 41 23 486 862 1327 1614 1821 1096 1011 961 974 866 636 920 210 487 1226 821 693 688 629 738 937 845 760 678 603 473 405 332 251 264 301 342 321 300 274 250 233 230 205 2 2 3 22 125 462 802 898 917
0 0 0 0 0 29 343 195 151 107 18 47 120 0 12 513 972 1185 1544 1892 1487 1328 1124 1089 753 545 66 52 79 835 1003 942 915 926 876 781 648 651 610 505 401 306 193 252 324 334 371 378 333 315 292 281 259 227 2 2 2 2 12 103 346 617 833
4 11 0 1 19 1 46 120 79 24 46 7 25 9 11 296 796 1236 1551 2033 1867 1532 1476 1233 1084 238 127 48 295 714 1159 1093 1132 925 766 754 697 585 438 400 315 198 93 202 258 310 323 316 298 286 268 233 128 0 6 24 29 20 17 31 154 406 698
53 2 8 0 0 12 10 16 100 42 2 32 28 10 1 420 855 1506 1506 2062 2197 1602 1244 1291 796 857 673 877 1236 1241 1242 921 924 833 770 664 516 457 311 180 144 57 141 218 202 202 202 218 223 232 222 190 53 1 18 62 115 130 152 124 60 162 498
32 3 6 18 105 89 9 44 88 147 16 48 72 329 328 945 1266 1716 1738 2007 1870 1674 1870 1603 1120 1193 438 954 1191 1139 895 809 742 693 663 620 451 374 258 96 16 15 223 256 268 259 239 220 214 213 199 174 0 0 6 45 140 206 295 331 270 62 102
8 2 1 4 0 6 66 184 141 38 225 162 832 308 56 909 1567 1728 1910 1794 1438 1652 1579 1573 1043 764 957 1003 1102 1034 842 727 750 796 723 638 443 273 152 56 2 1 3 243 234 211 213 219 198 197 174 161 95 172 138 160 205 309 387 353 327 213 85
8 2 5 0 140 421 300 285 318 105 240 562 454 705 484 818 1608 2024 1979 1776 1546 1361 1458 1182 929 992 975 839 907 818 796 733 760 624 607 487 318 195 38 1 0 0 0 0 1 17 102 222 83 165 194 187 215 234 238 251 311 337 404 418 300 167 146
1 43 61 278 6 39 311 459 309 924 599 193 543 1290 993 975 1046 1804 1716 1709 1317 1227 1300 1281 1038 860 857 979 833 804 740 750 688 693 617 296 150 22 0 0 0 0 0 0 0 58 161 170 183 262 254 253 246 250 260 322 421 456 483 496 367 270 366
61 22 49 46 170 115 65 14 307 356 541 83 356 838 882 1183 1281 1307 1762 1973 1340 1079 1113 1130 913 1034 987 755 776 754 745 770 660 470 260 90 0 0 0 0 0 0 0 1 3 82 250 244 301 330 292 279 279 364 369 366 372 486 442 395 369 344 411
0 58 308 516 744 570 554 242 392 647 639 550 380 1142 1374 1148 1076 1212 1203 1601 1480 1211 1058 1324 1376 1073 784 663 717 646 603 578 513 321 187 24 0 0 0 0 0 0 0 0 59 201 260 322 333 204 258 281 274 293 275 308 410 416 397 277 375 371 331
55 182 620 744 658 759 780 698 433 669 728 482 446 1058 1143 1404 1285 1179 1110 1295 1392 1133 1212 1446 1320 1090 577 560 610 527 492 500 407 211 34 0 0 0 0 0 0 0 0 99 192 278 350 354 106 47 205 144 124 149 171 269 258 238 291 340 277 303 326
264 502 667 685 782 764 1056 896 745 799 833 802 753 931 1138 1037 1089 1078 1039 1398 1432 1233 1667 1145 1124 746 413 504 566 499 421 405 364 92 1 0 0 0 0 0 0 0 65 162 250 308 348 151 0 0 0 0 0 1 1 4 6 1 84 231 231 213 219
102 132 463 870 250 353 483 739 904 789 557 969 1094 1120 1261 1400 1496 1448 1357 934 1036 1321 1269 1186 1155 1058 556 430 442 519 462 428 199 12 0 0 0 0 0 0 0 0 23 116 228 317 225 0 0 0 0 0 0 0 1 72 3 78 217 250 256 240 109
388 298 235 1044 899 893 837 731 685 982 807 1131 1276 1489 1550 1617 1717 1654 1605 1230 876 906 763 1004 1226 1107 676 465 454 576 381 284 46 0 0 0 0 0 0 0 0 0 0 2 210 287 0 0 0 0 0 0 161 0 24 226 224 244 223 189 169 158 146
82 76 64 558 542 483 859 632 975 1040 1042 1327 1547 1566 1565 1508 1437 1514 2065 2009 1637 1172 895 684 940 1015 704 502 500 520 333 141 0 0 0 0 0 0 0 0 0 0 0 49 129 254 216 0 0 0 0 42 122 155 0 215 256 227 202 155 56 59 1
38 248 106 99 216 520 685 666 917 1231 958 1255 1334 1236 1318 1340 1228 1345 1648 1595 1865 1512 1200 1006 620 693 799 508 432 501 272 48 0 0 0 0 0 0 0 0 0 0 0 0 15 109 195 143 0 0 0 0 0 0 58 200 235 158 160 110 59 28 4

ECMWFFLT2_con_mucape_144.txt.gz
CAPE
0 0 0 0 0 0 0 0 0 0 0 0 0 0 0 0 0 0 0 0 0 0 1 115 603 931 1511 1232 1255 1373 1470 1577 2077 2290 2448 2414 2344 2213 1999 1970 2006 1892 1715 1614 1580 1676 1828 2072 1960 1655 2137 2075 2023 1905 2345 2627 2492 2551 2512 2616 2366 2112 2050
0 0 0 0 0 0 0 0 0 0 0 0 0 0 8 0 0 107 0 0 0 11 6 330 913 620 1040 1125 964 1190 1539 1336 1274 1972 2496 2861 2934 2813 2583 2453 2318 2170 1954 1800 1661 1552 1797 2052 2045 2054 2105 2240 2594 2779 2555 2556 2522 2471 2291 2272 2014 1908 1928
0 0 0 0 0 0 0 2 0 0 0 0 0 0 6 0 0 0 0 0 0 0 49 144 490 338 434 883 1032 1034 1273 1261 1278 1544 2254 2787 2831 2816 2789 2705 2517 2420 2267 1948 1861 1612 1899 2154 2040 2194 2354 2346 2504 2631 2262 2113 2298 2156 2040 1993 1822 1805 1793
0 0 0 0 0 0 0 0 0 0 0 0 0 0 0 0 0 0 0 0 2 1 0 0 96 277 516 766 845 1047 1115 1096 1236 1497 1800 2441 2756 2890 2876 2722 2648 2405 2158 2079 1910 1861 1931 2204 2547 2201 2001 1848 1996 2210 2226 2020 1990 2066 2158 1890 1871 1754 1683
0 0 0 0 1 0 0 0 0 0 0 6 0 0 0 0 0 0 0 0 0 7 0 77 320 687 859 1088 1238 1274 1362 1454 1563 1835 1954 2281 2599 2724 2734 2712 2226 2400 2276 2046 2001 2263 2556 2543 2284 1860 1704 1476 1687 1756 1533 1588 1978 1816 1857 1964 1868 1925 1773
0 0 0 0 0 0 0 0 0 0 0 0 0 15 0 0 0 0 0 0 0 0 328 74 422 735 1062 1323 1232 1187 1517 1773 2200 2395 2269 2210 2420 2670 2556 2489 2392 2409 2316 2109 2180 2295 2071 1948 1857 1767 1415 1443 1632 1410 998 1134 1754 1768 1402 1691 1934 1992 1884
2 26 8 0 0 0 4 0 0 0 0 0 0 0 143 11 0 0 0 0 0 98 376 824 674 1095 1122 1079 945 1217 1533 2062 2308 2285 2124 2356 2455 2511 2582 2520 2676 2562 2424 2530 2402 2199 1955 1724 1701 1690 1572 1487 1596 1553 1395 1840 1906 1930 1629 1575 1820 2035 2118
0 0 0 18 0 0 0 0 0 0 0 0 0 0 12 0 70 1 0 2 24 869 944 1252 1365 1842 1576 1068 973 1336 1439 1987 2282 2243 2088 2290 2141 2328 2628 2616 2719 2680 2603 2420 2464 2313 2183 2075 1919 1760 1727 1690 1751 1848 1941 1959 2115 2311 2086 1873 1905 2209 2344
5 0 0 2 18 4 0 3 30 1 4 7 24 21 103 0 0 0 0 0 0 241 1518 1733 1458 1736 1318 1087 1104 1050 1671 1974 2022 1999 2045 2058 2014 2067 2190 2662 2641 2538 2298 1855 2026 1976 2427 2306 2062 1968 1882 1877 1843 1962 2130 2129 2295 2227 1981 2007 2008 2216 2498
0 2 12 14 2 0 0 85 428 109 4 95 32 0 76 4 85 18 0 1 20 277 978 1150 924 1306 1307 1246 1213 1488 1676 2150 1693 1695 1868 2015 1993 2098 2339 2438 2335 2066 1691 1845 1881 2127 2124 2237 2379 2216 2258 2028 2014 2240 2093 2220 2200 2269 2149 1996 1962 2206 2504
0 0 106 0 0 22 0 29 49 49 8 27 24 30 121 26 333 64 11 0 0 0 71 408 732 851 773 1019 1276 1220 1567 1765 1919 2126 2176 2052 2171 2466 2237 2113 1866 1721 1669 1644 1758 1984 1896 2170 2167 2353 2451 2360 2191 2333 2375 2154 2042 1996 2251 2133 2074 2257 2124
0 0 2 0 0 0 0 0 46 44 41 67 58 64 210 118 76 4 0 37 0 0 0 0 42 156 548 654 1028 1318 1371 1742 2060 2200 2031 1696 2198 2072 2098 1882 1649 1563 1491 1672 1701 1695 1755 1775 1958 1990 2023 2072 2108 2288 2193 2056 1932 1821 1934 2232 2428 2571 2467
0 0 0 0 0 0 0 0 0 71 72 76 42 42 30 134 20 0 48 19 0 0 0 0 0 60 246 386 867 1322 2380 2149 2006 2143 2389 2314 2043 2042 1895 1785 1454 1450 1532 1524 1605 1478 1604 1626 1748 1835 2043 2029 1870 1837 2048 2089 1861 1720 1796 2033 2321 2413 2429
0 0 0 0 0 0 0 0 0 7 43 67 15 6 4 12 0 0 4 67 0 0 6 5 873 778 964 1830 2067 1773 1529 2117 2232 2175 2119 2134 2242 2053 1934 1772 1406 1142 1152 1202 1355 1236 1231 1177 1237 1500 1727 1725 1816 2042 1943 1686 1816 1886 1710 1757 1894 2170 2330
0 0 0 0 0 0 0 0 0 0 0 0 0 0 0 0 0 0 2 28 33 502 338 1285 1634 1769 1638 1360 1056 1392 2486 2062 1892 2173 2026 2371 2484 2148 1798 1661 1340 1114 1009 975 1032 1039 979 947 1004 1103 1290 1394 1516 1636 1758 1838 1873 1690 1599 1660 1748 2134 2226
0 0 0 0 0 0 0 0 0 0 0 0 0 0 0 0 0 0 0 21 8 1184 1285 1623 1913 1726 1260 1164 1701 2066 2016 1776 2217 1994 1834 2144 2592 2183 1859 1466 1162 1084 1061 914 808 692 825 865 858 984 1003 990 1178 1366 1547 1640 1771 1900 1902 1765 1627 1892 2068
0 0 0 0 0 0 0 0 0 0 0 0 0 0 12 5 0 0 3 1 128 1118 1733 1218 1590 1331 1146 1556 1349 1547 1752 1899 1894 1934 1853 2320 2175 2137 1686 1156 1054 1007 897 748 763 835 903 886 834 787 760 813 962 1089 1192 1367 1631 1597 1796 1872 1945 1895 1914
0 0 0 0 0 0 0 534 333 0 0 0 0 0 0 7 17 0 124 646 811 1406 1337 832 1445 1516 1501 1586 2131 2291 1940 1862 1925 1901 2040 1949 2085 1842 1439 1008 920 946 820 746 762 786 672 673 645 597 446 408 479 498 548 701 1009 1452 1558 1494 1723 1918 1914
0 0 0 0 0 0 696 192 693 162 0 0 0 0 0 42 333 306 534 562 838 812 1022 1475 1658 1895 2239 2405 1915 1789 1671 2403 1963 2231 2018 1805 1804 1769 1260 789 796 873 731 728 654 597 568 481 374 308 341 356 339 242 280 338 532 805 1040 1322 1520 1536 1756
8 9 0 0 0 509 85 511 419 527 62 17 5 3 0 48 127 572 488 458 1337 2066 2533 2646 2496 2529 2163 1952 2278 2194 2186 1866 1971 1943 1794 1773 1574 1148 1060 833 882 800 675 594 540 448 333 266 224 192 203 225 174 162 149 200 339 506 769 1071 1345 1617 1517
0 0 0 0 117 24 65 62 305 48 11 13 5 0 0 5 363 495 425 1704 1671 2041 2191 2166 2141 2123 1741 1515 1437 1736 2010 1692 1646 1686 1700 1402 1208 857 950 974 868 768 632 483 382 241 210 212 205 230 190 152 139 131 141 160 214 320 418 713 1017 1333 1584
0 0 0 0 0 0 0 0 0 0 0 0 0 0 0 124 389 531 779 1637 1604 2143 2198 2176 2108 2002 1509 715 676 1839 1780 1768 1549 1355 1227 1054 930 908 887 838 708 660 564 406 266 178 258 226 215 210 177 216 188 185 184 199 201 204 263 417 743 955 1216
0 0 0 0 0 0 0 1 22 92 378 54 254 0 0 246 509 646 1021 1352 1562 2122 2131 2330 2268 1264 379 0 395 1323 2205 1972 1679 1707 1376 1138 920 916 824 625 652 566 397 297 225 230 259 224 248 186 191 223 181 159 181 208 245 242 225 276 417 694 942
0 0 0 0 0 10 356 288 39 342 265 196 82 0 0 464 553 657 925 1462 1725 1947 2223 2287 1954 725 0 0 1323 1545 2090 1975 1806 1740 1383 1042 893 760 626 562 466 329 320 270 280 233 226 209 174 166 182 180 157 156 178 240 299 343 368 373 378 420 553
0 4 9 0 1 238 418 931 531 400 346 132 2 0 0 436 599 596 912 1504 1746 2288 2530 1832 1411 743 1077 1238 1034 1612 1846 1653 1696 1375 1063 885 782 688 505 406 278 235 237 245 174 159 155 169 177 154 177 165 181 210 224 263 318 410 476 580 573 634 592
0 20 6 0 11 334 414 580 644 533 334 0 0 1308 1772 567 956 972 878 1340 1884 2410 2464 1461 597 1410 714 946 1158 1452 1482 1386 1615 1094 950 774 618 558 475 313 179 163 174 188 150 115 153 170 162 167 147 141 183 238 256 297 385 385 368 446 490 626 774
16 22 51 29 0 424 334 1064 991 862 179 0 845 1482 1526 876 1020 1063 1169 1552 2029 2033 1666 1156 1425 744 739 964 1547 1589 1290 1229 1264 1145 937 899 684 533 420 293 205 107 189 148 65 147 174 182 118 113 162 176 150 184 248 295 270 229 247 302 427 649 758
146 214 206 96 258 543 922 508 303 424 230 896 558 478 882 1991 1033 1107 1536 1840 2061 1570 1000 1137 926 867 1364 1683 1787 1702 1391 1353 1238 994 898 861 663 475 264 122 223 116 159 83 84 204 223 178 134 91 143 173 191 220 224 216 242 242 234 285 309 575 791
173 186 321 1001 789 890 736 606 1423 2088 850 559 1551 708 520 1337 1269 1383 1190 2135 1807 1043 885 966 1155 1205 1268 1821 1664 1743 1581 1233 1052 911 912 726 516 296 201 140 89 82 77 65 145 234 188 121 66 55 86 194 194 221 215 228 258 252 245 279 354 437 681
544 333 140 331 536 515 744 619 1073 932 1028 359 607 1019 490 708 1870 1362 1078 1134 963 1067 1288 1065 1173 1149 1805 2151 1804 1746 1504 1244 1000 902 757 532 404 153 118 216 91 61 80 152 236 232 149 67 23 80 74 188 164 124 83 85 64 168 261 302 388 431 467
296 223 536 755 1159 1193 847 824 834 1377 1185 1646 1255 1448 878 1481 1312 1049 1082 858 1175 1336 1520 1357 1315 1859 2210 2122 1959 1707 1426 1152 927 718 705 638 291 213 306 106 40 104 164 201 235 167 116 51 48 59 86 88 54 47 50 46 44 171 280 342 387 422 394
308 294 646 452 402 1140 1143 1056 839 900 826 1315 1540 2482 1356 1452 1205 1706 1977 1551 1399 1589 1391 1495 1644 2243 2117 2023 1946 1594 1341 1049 919 859 618 461 250 204 94 102 85 194 153 120 108 56 33 20 54 115 103 59 20 14 14 10 8 85 174 225 284 365 267
403 291 278 325 642 436 750 1498 1116 1405 1607 1295 1332 1827 1475 1628 1919 2056 1948 1672 1817 1415 1486 1848 2026 2248 2025 1952 1850 1470 1124 888 780 876 661 322 224 119 166 109 69 200 84 64 27 30 19 14 76 124 68 30 29 282 277 282 309 326 365 327 302 310 260
266 286 534 532 554 505 684 1052 1352 1447 1241 1541 1714 1823 1295 1226 1706 1910 2022 2286 2218 2036 2214 2111 1896 2128 2032 1948 1841 1479 1037 895 1012 761 356 170 110 102 75 56 83 62 43 34 8 3 13 47 161 90 57 15 5 21 151 290 117 280 336 366 358 311 249
436 723 366 872 709 792 1017 1297 1042 1433 1241 1110 1258 1496 1464 1518 1855 1930 2184 2326 2499 2408 2198 1890 1735 1994 2010 1775 1486 1196 876 868 774 536 225 126 95 40 45 29 35 48 9 1 255 240 3 39 109 66 60 7 6 5 4 5 4 7 7 136 260 260 272
278 279 401 671 798 587 711 866 1119 1201 1651 1392 1242 1381 1702 1697 1897 1836 1756 1759 1943 2223 2156 2034 1776 1969 1795 1606 1176 1106 918 985 616 237 198 113 80 47 27 35 52 14 4 1 92 239 40 64 80 66 10 4 6 3 2 2 3 4 6 6 6 86 178
324 351 604 818 962 892 718 1002 1126 1585 1910 1590 1239 1558 1916 2054 1922 1841 1718 1751 1754 1833 1966 2009 2248 1922 1807 1464 1284 1054 955 805 475 300 182 84 73 43 13 1 17 10 9 2 103 158 13 27 27 17 6 4 2 8 19 4 2 6 5 2 0 0 3